EI8EPB-1 Weather Reports


time (UTC)temp
F
wind
direction
speed
knots
gust
knots
rain 1hr
in
rain 24hr
in
rain mn
in
humidity
%
barometer
mb
20260508021003 42 0 0.0 0.0 0.00 0.00 0.00 94 1012.1
20260508020504 42 0 0.0 0.0 0.00 0.00 0.00 94 1012.1
20260508020005 42 0 0.0 0.0 0.00 0.00 0.00 93 1012.2
20260508015503 42 0 0.0 0.0 0.00 0.00 0.00 93 1012.2
20260508015003 43 0 0.0 0.0 0.00 0.00 0.00 93 1012.2
20260508014504 43 0 0.0 0.0 0.00 0.00 0.00 93 1012.2
20260508014003 43 0 0.0 0.0 0.00 0.00 0.00 93 1012.3
20260508013503 43 0 0.0 0.0 0.00 0.00 0.00 93 1012.2
20260508013004 43 0 0.0 0.0 0.00 0.00 0.00 92 1012.2
20260508012503 44 0 0.0 0.0 0.00 0.00 0.00 92 1012.1
20260508012003 44 0 0.0 0.0 0.00 0.00 0.00 92 1012.1
20260508011503 44 0 0.0 0.0 0.00 0.00 0.00 92 1012.1
20260508011003 44 0 0.0 0.0 0.00 0.00 0.00 92 1012.2
20260508010503 44 0 0.0 0.0 0.00 0.00 0.00 91 1012.2
20260508010004 44 0 0.0 0.0 0.00 0.00 0.00 91 1012.2
20260508005503 45 0 0.0 0.0 0.00 0.00 0.00 90 1012.3
20260508005003 45 0 0.0 0.0 0.00 0.00 0.00 90 1012.3
20260508004503 45 0 0.0 0.0 0.00 0.00 0.00 90 1012.3
20260508004003 46 0 0.0 0.0 0.00 0.00 0.00 89 1012.3
20260508003503 46 0 0.0 0.0 0.00 0.00 0.00 90 1012.3
20260508003003 46 0 0.0 0.0 0.00 0.00 0.00 90 1012.3
20260508002503 47 0 0.0 0.0 0.00 0.00 0.00 90 1012.3
20260508002003 47 0 0.0 0.0 0.00 0.00 0.00 89 1012.2
20260508001503 47 0 0.0 0.0 0.00 0.00 0.00 89 1012.2
20260508001003 47 0 0.0 0.0 0.00 0.00 0.00 89 1012.3
20260508000503 47 0 0.0 0.0 0.00 0.00 0.00 89 1012.3
20260508000003 47 0 0.0 0.0 0.00 0.00 0.00 89 1012.3
20260507235503 48 0 0.0 0.0 0.00 0.00 0.00 88 1012.3
20260507235003 48 143 0.0 0.9 0.00 0.00 0.00 88 1012.3
20260507234503 48 150 0.0 0.9 0.00 0.00 0.00 88 1012.4
20260507234003 48 155 0.0 0.9 0.00 0.00 0.00 88 1012.4
20260507233503 48 0 0.0 0.0 0.00 0.00 0.00 88 1012.4
20260507233003 49 0 0.0 0.0 0.00 0.00 0.00 88 1012.2
20260507232503 49 0 0.0 0.0 0.00 0.00 0.00 88 1012.3
20260507232003 49 0 0.0 0.0 0.00 0.00 0.00 88 1012.2
20260507231503 49 151 0.0 0.9 0.00 0.00 0.00 88 1012.3
20260507231003 49 151 0.0 0.9 0.00 0.00 0.00 88 1012.3
20260507230503 49 134 0.0 0.9 0.00 0.00 0.00 88 1012.3
20260507230004 49 145 0.0 0.9 0.00 0.00 0.00 88 1012.3
20260507225503 49 165 0.0 0.9 0.00 0.00 0.00 87 1012.2
20260507225003 49 174 0.0 0.9 0.00 0.00 0.00 87 1012.2
20260507224504 49 174 0.0 0.9 0.00 0.00 0.00 87 1012.2
20260507224004 49 169 0.0 0.9 0.00 0.00 0.00 87 1012.1
20260507223503 49 160 0.0 0.9 0.00 0.00 0.00 87 1012.1
20260507223003 49 0 0.0 0.0 0.00 0.00 0.00 87 1012.2
20260507222503 49 170 0.0 0.9 0.00 0.00 0.00 87 1012.1
20260507222003 49 170 0.0 0.9 0.00 0.00 0.00 86 1012.2
20260507221503 50 0 0.0 0.0 0.00 0.00 0.00 86 1012.1
20260507221003 50 0 0.0 0.0 0.00 0.00 0.00 86 1012.1
20260507220503 50 0 0.0 0.0 0.00 0.00 0.00 86 1012.1
20260507220004 50 0 0.0 0.0 0.00 0.00 0.00 86 1012.1
20260507215503 50 0 0.0 0.0 0.00 0.00 0.00 86 1012.1
20260507215003 50 0 0.0 0.0 0.00 0.00 0.00 85 1012.2
20260507214503 50 0 0.0 0.0 0.00 0.00 0.00 85 1012.1
20260507214003 50 0 0.0 0.0 0.00 0.00 0.00 85 1012.1
20260507213503 50 0 0.0 0.0 0.00 0.00 0.00 85 1012.1
20260507213003 50 0 0.0 0.0 0.00 0.00 0.00 85 1012.1
20260507212503 50 158 0.0 0.9 0.00 0.00 0.00 84 1012.0
20260507212003 50 158 0.0 0.9 0.00 0.00 0.00 84 1012.0
20260507211503 50 0 0.0 0.0 0.00 0.00 0.00 84 1011.9
20260507211003 50 146 0.0 0.9 0.00 0.00 0.00 84 1011.9
20260507210503 50 141 0.0 0.9 0.00 0.00 0.00 84 1011.9
20260507210003 50 133 0.0 0.9 0.00 0.00 0.00 84 1011.9
20260507205503 51 132 0.0 0.9 0.00 0.00 0.00 84 1011.9
20260507205003 51 0 0.0 0.0 0.00 0.00 0.00 83 1011.8
20260507204503 51 0 0.0 0.0 0.00 0.00 0.00 83 1011.7
20260507204003 51 0 0.0 0.0 0.00 0.00 0.00 83 1011.6
20260507203503 51 141 0.0 0.9 0.00 0.00 0.00 82 1011.5
20260507203003 51 152 0.0 0.9 0.00 0.00 0.00 82 1011.4
20260507202503 51 144 0.0 0.9 0.00 0.00 0.00 82 1011.4
20260507202004 52 143 0.0 0.9 0.00 0.00 0.00 81 1011.4
20260507201503 52 147 0.0 0.9 0.00 0.00 0.00 81 1011.3
20260507201004 52 141 0.0 1.7 0.00 0.00 0.00 81 1011.3
20260507200503 52 151 0.0 1.7 0.00 0.00 0.00 80 1011.3
20260507200003 52 152 0.0 1.7 0.00 0.00 0.00 80 1011.3
20260507195503 52 147 0.0 1.7 0.00 0.00 0.00 80 1011.2
20260507195003 52 144 0.0 1.7 0.00 0.00 0.00 80 1011.1
20260507194503 53 145 0.0 1.7 0.00 0.00 0.00 80 1011.1
20260507194003 53 171 0.0 1.7 0.00 0.00 0.00 79 1011.1
20260507193503 53 205 0.0 3.5 0.00 0.00 0.00 79 1011.1
20260507193003 53 199 0.0 3.5 0.00 0.00 0.00 78 1011.1
20260507192503 53 173 0.9 2.6 0.00 0.00 0.00 78 1011.1
20260507192003 54 168 0.9 3.5 0.00 0.00 0.00 77 1011.0
20260507191503 54 166 0.9 3.5 0.00 0.00 0.00 77 1011.0
20260507191003 54 159 0.9 5.2 0.00 0.00 0.00 76 1011.0
20260507190504 54 153 0.9 5.2 0.00 0.00 0.00 76 1011.0
20260507190004 55 157 0.9 4.3 0.00 0.00 0.00 76 1011.0
20260507185503 55 173 0.0 3.5 0.00 0.00 0.00 76 1011.0
20260507185003 55 163 0.9 3.5 0.00 0.00 0.00 76 1011.0
20260507184503 55 159 0.9 3.5 0.00 0.00 0.00 76 1010.9
20260507184003 55 162 0.9 3.5 0.00 0.00 0.00 76 1010.8
20260507183503 55 161 0.9 3.5 0.00 0.00 0.00 76 1010.8
20260507183003 55 169 0.9 3.5 0.00 0.00 0.00 75 1010.8
20260507182503 55 165 0.9 4.3 0.00 0.00 0.00 75 1010.8
20260507182003 55 163 0.9 4.3 0.00 0.00 0.00 75 1010.8
20260507181503 56 168 0.9 3.5 0.00 0.00 0.00 76 1010.7
20260507181003 56 166 0.9 4.3 0.00 0.00 0.00 75 1010.7
20260507180503 56 169 0.9 4.3 0.00 0.00 0.00 75 1010.7
20260507180003 56 173 1.7 4.3 0.00 0.00 0.00 75 1010.6
20260507175503 56 180 1.7 4.3 0.00 0.00 0.00 74 1010.6
20260507175003 56 187 1.7 5.2 0.00 0.00 0.00 74 1010.6
20260507174503 56 172 1.7 5.2 0.00 0.00 0.00 74 1010.6
20260507174003 56 164 1.7 5.2 0.00 0.00 0.00 73 1010.6
20260507173503 56 165 1.7 7.0 0.00 0.00 0.00 73 1010.6
20260507173003 56 167 2.6 7.0 0.00 0.00 0.00 73 1010.6
20260507172503 56 164 2.6 8.7 0.00 0.00 0.00 73 1010.6
20260507172003 56 167 2.6 8.7 0.00 0.00 0.00 72 1010.6
20260507171503 57 173 1.7 6.1 0.00 0.00 0.00 72 1010.6
20260507171003 57 176 1.7 5.2 0.00 0.00 0.00 72 1010.5
20260507170503 57 172 1.7 7.0 0.00 0.00 0.00 71 1010.5
20260507170003 57 169 1.7 7.0 0.00 0.00 0.00 71 1010.5
20260507165503 57 169 1.7 5.2 0.00 0.00 0.00 71 1010.5
20260507165003 57 163 2.6 7.0 0.00 0.00 0.00 71 1010.6
20260507164503 57 163 1.7 7.0 0.00 0.00 0.00 71 1010.5
20260507164003 57 163 1.7 5.2 0.00 0.00 0.00 71 1010.5
20260507163503 57 163 2.6 6.1 0.00 0.00 0.00 70 1010.5
20260507163003 57 168 1.7 6.1 0.00 0.00 0.00 70 1010.6
20260507162503 57 175 1.7 7.0 0.00 0.00 0.00 71 1010.5
20260507162003 57 187 1.7 7.0 0.00 0.00 0.00 70 1010.5
20260507161503 57 196 1.7 3.5 0.00 0.00 0.00 70 1010.5
20260507161003 57 196 1.7 4.3 0.00 0.00 0.00 71 1010.5
20260507160503 57 196 0.9 4.3 0.00 0.00 0.00 70 1010.4
20260507160004 57 190 0.9 4.3 0.00 0.00 0.00 71 1010.4
20260507155503 57 188 0.9 4.3 0.00 0.00 0.00 70 1010.4
20260507155003 58 185 0.9 4.3 0.00 0.00 0.00 71 1010.4
20260507154504 58 192 1.7 5.2 0.00 0.00 0.00 69 1010.3
20260507154003 58 195 1.7 5.2 0.00 0.00 0.00 70 1010.3
20260507153504 58 190 1.7 5.2 0.00 0.00 0.00 68 1010.3
20260507153003 58 184 1.7 4.3 0.00 0.00 0.00 69 1010.3
20260507152503 58 186 1.7 4.3 0.00 0.00 0.00 67 1010.3
20260507152003 58 192 1.7 5.2 0.00 0.00 0.00 66 1010.2
20260507151503 58 195 1.7 5.2 0.00 0.00 0.00 66 1010.2
20260507151003 58 192 0.9 3.5 0.00 0.00 0.00 66 1010.3
20260507150503 58 183 1.7 4.3 0.00 0.00 0.00 65 1010.3
20260507150003 59 184 1.7 4.3 0.00 0.00 0.00 64 1010.2
20260507145503 59 189 0.9 3.5 0.00 0.00 0.00 64 1010.3
20260507145003 60 188 0.9 4.3 0.00 0.00 0.00 64 1010.2
20260507144503 60 192 0.9 4.3 0.00 0.00 0.00 62 1010.2
20260507144003 60 192 0.9 3.5 0.00 0.00 0.00 63 1010.2
20260507143503 60 193 0.9 4.3 0.00 0.00 0.00 62 1010.2
20260507143003 60 192 0.9 4.3 0.00 0.00 0.00 62 1010.2
20260507142503 61 189 0.9 4.3 0.00 0.00 0.00 59 1010.3
20260507142003 61 175 0.9 2.6 0.00 0.00 0.00 59 1010.4
20260507141503 61 162 0.9 4.3 0.00 0.00 0.00 61 1010.4
20260507141003 61 158 1.7 5.2 0.00 0.00 0.00 59 1010.3
20260507140503 60 161 2.6 6.1 0.00 0.00 0.00 62 1010.4
20260507140003 60 161 1.7 6.1 0.00 0.00 0.00 62 1010.4
20260507135503 60 153 1.7 5.2 0.00 0.00 0.00 63 1010.3
20260507135003 60 157 1.7 5.2 0.00 0.00 0.00 61 1010.3
20260507134503 60 158 1.7 5.2 0.00 0.00 0.00 62 1010.4
20260507134003 60 151 0.9 5.2 0.00 0.00 0.00 62 1010.4
20260507133503 60 158 0.9 4.3 0.00 0.00 0.00 64 1010.4
20260507133003 60 176 0.9 4.3 0.00 0.00 0.00 63 1010.4
20260507132503 60 175 0.9 2.6 0.00 0.00 0.00 63 1010.5
20260507132003 60 174 0.9 2.6 0.00 0.00 0.00 65 1010.4
20260507131503 60 186 0.9 3.5 0.00 0.00 0.00 65 1010.5
20260507131003 60 175 1.7 7.0 0.00 0.00 0.00 64 1010.5
20260507130503 60 175 1.7 7.0 0.00 0.00 0.00 63 1010.5
20260507130004 61 176 0.9 3.5 0.00 0.00 0.00 63 1010.6
20260507125503 61 174 1.7 3.5 0.00 0.00 0.00 61 1010.5
20260507125003 62 177 1.7 5.2 0.00 0.00 0.00 63 1010.5
20260507124503 61 179 0.9 5.2 0.00 0.00 0.00 62 1010.6
20260507124003 61 182 1.7 4.3 0.00 0.00 0.00 65 1010.6
20260507123503 60 167 1.7 4.3 0.00 0.00 0.00 66 1010.7
20260507123003 59 160 1.7 4.3 0.00 0.00 0.00 66 1010.7
20260507122503 58 161 1.7 5.2 0.00 0.00 0.00 70 1010.8
20260507122004 58 160 1.7 6.1 0.00 0.00 0.00 70 1010.9
20260507121504 58 162 1.7 6.1 0.00 0.00 0.00 71 1010.9
20260507121003 58 170 1.7 6.1 0.00 0.00 0.00 70 1010.9
20260507120503 58 179 1.7 4.3 0.00 0.00 0.00 70 1010.9
20260507120004 58 169 0.9 4.3 0.00 0.00 0.00 72 1010.9
20260507115503 57 153 0.9 5.2 0.00 0.00 0.00 74 1010.9
20260507115003 57 162 1.7 6.1 0.00 0.00 0.00 73 1011.0
20260507114503 57 162 1.7 7.0 0.00 0.00 0.00 73 1010.9
20260507114003 57 159 1.7 7.0 0.00 0.00 0.00 73 1010.9
20260507113503 57 160 1.7 4.3 0.00 0.00 0.00 74 1010.9
20260507113003 57 156 0.9 4.3 0.00 0.00 0.00 75 1010.9
20260507112503 56 167 1.7 4.3 0.00 0.00 0.00 75 1010.9
20260507112003 56 175 1.7 4.3 0.00 0.00 0.00 76 1010.9
20260507111504 56 175 0.9 2.6 0.00 0.00 0.00 77 1010.9
20260507111003 56 172 0.9 3.5 0.00 0.00 0.00 78 1010.9
20260507110503 56 178 0.9 3.5 0.00 0.00 0.00 78 1010.9
20260507110003 56 181 0.9 3.5 0.00 0.00 0.00 80 1010.9
20260507105503 55 190 0.0 1.7 0.00 0.00 0.00 81 1011.0
20260507105004 55 189 0.0 1.7 0.00 0.00 0.00 82 1011.0
20260507104504 55 188 0.0 1.7 0.00 0.00 0.00 84 1011.0
20260507104003 54 216 0.0 0.9 0.00 0.00 0.00 85 1011.0
20260507103504 54 171 0.9 2.6 0.00 0.00 0.00 86 1011.1
20260507103003 53 160 0.9 3.5 0.00 0.00 0.00 85 1011.2
20260507102503 53 164 0.9 3.5 0.00 0.00 0.00 85 1011.1
20260507102003 54 165 1.7 4.3 0.00 0.00 0.00 84 1011.2
20260507101503 54 163 0.9 4.3 0.00 0.00 0.00 83 1011.1
20260507101003 54 166 0.9 2.6 0.00 0.00 0.00 83 1011.2
20260507100503 54 168 0.9 2.6 0.00 0.00 0.00 83 1011.2
20260507100003 55 178 0.9 2.6 0.00 0.00 0.00 83 1011.1
20260507095503 55 198 0.0 1.7 0.00 0.00 0.00 83 1011.1
20260507095003 55 212 0.0 1.7 0.00 0.00 0.00 82 1011.2
20260507094503 56 250 0.0 1.7 0.00 0.00 0.00 82 1011.1
20260507094003 56 223 0.0 2.6 0.00 0.00 0.00 82 1011.1
20260507093503 56 211 0.9 2.6 0.00 0.00 0.00 86 1011.1
20260507093003 55 222 0.9 2.6 0.00 0.00 0.00 89 1011.1
20260507092503 54 215 0.0 2.6 0.00 0.00 0.00 90 1011.2
20260507092003 53 182 0.9 5.2 0.00 0.00 0.00 90 1011.2
20260507091503 52 178 1.7 5.2 0.00 0.00 0.00 90 1011.2
20260507091003 52 181 1.7 3.5 0.00 0.00 0.00 91 1011.3
20260507090503 52 172 0.9 3.5 0.00 0.00 0.00 92 1011.3
20260507090005 51 158 0.9 3.5 0.00 0.00 0.00 92 1011.3
20260507085503 51 159 0.9 3.5 0.00 0.00 0.00 92 1011.4
20260507085003 51 179 0.0 1.7 0.00 0.00 0.00 93 1011.4
20260507084503 51 172 0.0 2.6 0.00 0.00 0.00 93 1011.3
20260507084003 50 170 0.9 2.6 0.00 0.00 0.00 93 1011.2
20260507083503 50 176 0.9 3.5 0.00 0.00 0.00 92 1011.3
20260507083003 50 186 0.9 3.5 0.00 0.00 0.00 92 1011.3
20260507082503 50 177 0.0 1.7 0.00 0.00 0.00 92 1011.3
20260507082003 50 176 0.0 1.7 0.00 0.00 0.00 92 1011.4
20260507081503 50 176 0.9 1.7 0.00 0.00 0.00 91 1011.3
20260507081003 50 169 0.0 1.7 0.00 0.00 0.00 90 1011.4
20260507080503 50 177 0.0 1.7 0.00 0.00 0.00 90 1011.3
20260507080004 51 175 0.0 1.7 0.00 0.00 0.00 90 1011.3
20260507075503 51 163 0.0 1.7 0.00 0.00 0.00 89 1011.3
20260507075003 51 162 0.0 1.7 0.00 0.00 0.00 89 1011.3
20260507074503 51 166 0.9 1.7 0.00 0.00 0.00 89 1011.2
20260507074003 51 171 0.9 2.6 0.00 0.00 0.00 88 1011.2
20260507073503 52 175 0.9 2.6 0.00 0.00 0.00 87 1011.2
20260507073003 52 184 0.0 2.6 0.00 0.00 0.00 88 1011.2
20260507072503 52 191 0.0 1.7 0.00 0.00 0.00 88 1011.1
20260507072003 51 187 0.9 1.7 0.00 0.00 0.00 88 1011.1
20260507071503 51 175 0.0 1.7 0.00 0.00 0.00 88 1011.1
20260507071003 51 163 0.0 1.7 0.00 0.00 0.00 88 1011.2
20260507070503 51 163 0.0 1.7 0.00 0.00 0.00 89 1011.1
20260507070007 51 166 0.0 1.7 0.00 0.00 0.00 90 1011.1
20260507065503 51 0 0.0 0.0 0.00 0.00 0.00 90 1011.1
20260507065003 51 0 0.0 0.0 0.00 0.00 0.00 90 1011.1
20260507064503 50 0 0.0 0.0 0.00 0.00 0.00 91 1011.1
20260507064003 50 0 0.0 0.0 0.00 0.00 0.00 91 1011.1
20260507063503 50 0 0.0 0.0 0.00 0.00 0.00 91 1011.1
20260507063003 49 0 0.0 0.0 0.00 0.00 0.00 92 1011.2
20260507062503 49 0 0.0 0.0 0.00 0.00 0.00 92 1011.1
20260507062003 49 0 0.0 0.0 0.00 0.00 0.00 92 1011.2
20260507061503 49 0 0.0 0.0 0.00 0.00 0.00 92 1011.2
20260507061003 48 0 0.0 0.0 0.00 0.00 0.00 92 1011.1
20260507060503 48 0 0.0 0.0 0.00 0.00 0.00 92 1011.1
20260507060003 48 0 0.0 0.0 0.00 0.00 0.00 92 1011.0
20260507055503 48 0 0.0 0.0 0.00 0.00 0.00 92 1011.0
20260507055003 48 0 0.0 0.0 0.00 0.00 0.00 92 1011.1
20260507054503 48 0 0.0 0.0 0.00 0.00 0.00 92 1011.1
20260507054003 47 0 0.0 0.0 0.00 0.00 0.00 92 1011.1
20260507053503 47 0 0.0 0.0 0.00 0.00 0.00 92 1011.1
20260507053004 47 0 0.0 0.0 0.00 0.00 0.00 92 1011.0
20260507052503 47 0 0.0 0.0 0.00 0.00 0.00 92 1011.0
20260507052003 47 0 0.0 0.0 0.00 0.00 0.00 92 1011.0
20260507051503 47 0 0.0 0.0 0.00 0.00 0.00 91 1011.0
20260507051003 47 0 0.0 0.0 0.00 0.00 0.00 91 1011.0
20260507050503 47 0 0.0 0.0 0.00 0.00 0.00 91 1011.0
20260507050003 47 0 0.0 0.0 0.00 0.00 0.00 91 1011.0
20260507045503 47 0 0.0 0.0 0.00 0.00 0.00 91 1011.0
20260507045003 47 0 0.0 0.0 0.00 0.00 0.00 91 1011.1
20260507044503 47 0 0.0 0.0 0.00 0.00 0.00 91 1011.1
20260507044003 47 0 0.0 0.0 0.00 0.00 0.00 91 1011.1
20260507043503 47 0 0.0 0.0 0.00 0.00 0.00 90 1011.0
20260507043003 47 0 0.0 0.0 0.00 0.00 0.00 90 1011.0
20260507042503 47 0 0.0 0.0 0.00 0.00 0.00 90 1011.0
20260507042003 47 0 0.0 0.0 0.00 0.00 0.00 90 1010.9
20260507041503 47 0 0.0 0.0 0.00 0.00 0.00 90 1011.0
20260507041003 48 0 0.0 0.0 0.00 0.00 0.00 90 1011.0
20260507040503 48 0 0.0 0.0 0.00 0.00 0.00 89 1011.0
20260507040003 48 0 0.0 0.0 0.00 0.00 0.00 89 1011.0
20260507035503 48 0 0.0 0.0 0.00 0.00 0.00 89 1011.0
20260507035004 48 0 0.0 0.0 0.00 0.00 0.00 89 1011.1
20260507034503 48 0 0.0 0.0 0.00 0.00 0.00 89 1011.1
20260507034003 48 0 0.0 0.0 0.00 0.00 0.00 88 1011.1
20260507033503 48 0 0.0 0.0 0.00 0.00 0.00 88 1011.1
20260507033003 48 0 0.0 0.0 0.00 0.00 0.00 88 1011.1
20260507032504 48 0 0.0 0.0 0.00 0.00 0.00 88 1011.1
20260507032003 48 0 0.0 0.0 0.00 0.00 0.00 88 1011.1
20260507031503 48 0 0.0 0.0 0.00 0.00 0.00 88 1011.2
20260507031003 48 172 0.0 0.9 0.00 0.00 0.00 88 1011.2
20260507030503 48 172 0.0 0.9 0.00 0.00 0.00 88 1011.1
20260507030004 48 0 0.0 0.0 0.00 0.00 0.00 88 1011.2
20260507025503 48 0 0.0 0.0 0.00 0.00 0.00 88 1011.2
20260507025003 48 0 0.0 0.0 0.00 0.00 0.00 88 1011.2
20260507024503 48 0 0.0 0.0 0.00 0.00 0.00 88 1011.2
20260507024003 48 0 0.0 0.0 0.00 0.00 0.00 88 1011.2
20260507023503 48 0 0.0 0.0 0.00 0.00 0.00 87 1011.2
20260507023003 48 0 0.0 0.0 0.00 0.00 0.00 87 1011.3
20260507022503 48 0 0.0 0.0 0.00 0.00 0.00 87 1011.2
20260507022003 48 0 0.0 0.0 0.00 0.00 0.00 87 1011.2
20260507021503 48 0 0.0 0.0 0.00 0.00 0.00 87 1011.2